Regional Weather Roundup
Issued by NWS

Home | Current Version | Previous Version | Graphics & Text | Print | Product List | Glossary On
Versions: 1 2 3 4 5 6 7 8 9 10 11 12 13 14 15 16 17 18 19 20 21 22 23 24 25 26 27 28 29 30 31 32 33 34 35 36 37 38 39 40 41 42 43 44 45 46 47 48 49 50
000
ASUS44 KMEG 300210
RWRTN
TENNESSEE HOURLY STATE WEATHER ROUNDUP
NATIONAL WEATHER SERVICE MEMPHIS TN
900 PM CDT FRI AUG 29 2014

TNZ002-004-019-021-049-052-054-088>092-300300-
WEST TENNESSEE

CITY           SKY/WX    TMP DP  RH WIND       PRES   REMARKS
MEMPHIS INTL   CLOUDY    83  69  62 SW5       29.96R
NWS MEMPHIS      N/A     83 N/A N/A MISG        N/A
JACKSON        PTCLDY    80  65  59 S3        29.97R
DYERSBURG      MOCLDY    79  63  57 SE5       29.97R
UNION CITY     CLEAR     75  70  83 S5        29.96R
PARIS          CLEAR     73  64  73 S7        29.99S
HUNTINGDON     PTCLDY    74  67  78 CALM      29.98R
LEXINGTON      CLEAR     73  66  78 CALM      29.99R
SAVANNAH       CLEAR     72  72 100 CALM      30.00R
$$

TNZ008-025-027-028-033-062-065-066-300300-
NORTH MIDDLE TENNESSEE

CITY           SKY/WX    TMP DP  RH WIND       PRES   REMARKS
NASHVILLE      PTCLDY    79  62  56 S5        30.01R
DICKSON        CLEAR     73  64  73 CALM      30.01R
PORTLAND       CLEAR     75  63  64 SE3       30.01R
CLARKSVILLE    CLEAR     78  64  61 CALM      29.99R
LEBANON        CLEAR     74  64  70 SE3       30.01R
SMYRNA         CLEAR     74  65  73 CALM      30.02R
COOKEVILLE     CLEAR     70  68  94 CALM      30.06R
LIVINGSTON     PTCLDY    74  62  66 S3        30.08
GALLATIN       CLEAR     79  66  64 CALM      30.03R
CROSSVILLE     PTCLDY    72  64  76 CALM      30.12R
$$

TNZ061-075-076-078-094-096-097-300300-
SOUTH MIDDLE TENNESSEE

CITY           SKY/WX    TMP DP  RH WIND       PRES   REMARKS
LEWISBURG      CLEAR     72  66  81 CALM      30.02R
FAYETTEVILLE   CLEAR     73  63  68 E5        30.04R
TULLAHOMA      CLEAR     72  64  78 CALM      30.07R
WINCHESTER     CLEAR     73  66  78 CALM      30.06R
MCMINNVILLE    CLEAR     72  70  94 CALM      30.06R
COLUMBIA         N/A     75  73  94 CALM      30.01R
SHELBYVILLE    CLEAR     73  68  83 E5        30.04R
$$

TNZ017-018-042-046-047-300300-
NORTHEAST TENNESSEE

CITY           SKY/WX    TMP DP  RH WIND       PRES   REMARKS
TRI CITIES     PTCLDY    73  69  87 CALM      30.14R
ELIZABETHTON   CLEAR     75  66  73 CALM      30.16R
$$

TNZ012-013-036-069-073-074-300300-
CENTRAL EAST TENNESSEE

CITY           SKY/WX    TMP DP  RH WIND       PRES   REMARKS
KNOXVILLE      PTCLDY    77  68  73 E5        30.06R
OAK RIDGE      PTCLDY    76  69  79 CALM      30.08R
GATLINBURG     CLEAR     75  68  78 CALM      30.08S
MORRISTOWN     CLEAR     73  72  94 CALM      30.11S
$$

TNZ083-085-099-300300-
SOUTHEAST TENNESSEE

CITY           SKY/WX    TMP DP  RH WIND       PRES   REMARKS
CHATTANOOGA    MOCLDY    79  64  60 CALM      30.05R
$$

SKY/WX REPORTED AS FAIR MEANS FEW OR NO CLOUDS BELOW
12 THOUSAND FEET.



USA.gov is the U.S. government's official web portal to all federal, state and local government web resources and services.